GW0759 Weather Reports


Display with metric or nautical units.
time (UTC)temp
F
wind
direction
speed
MPH
gust
MPH
rain 1hr
in
rain 24hr
in
rain mn
in
humidity
%
barometer
mb
20260507014554 58 337 2.0 5.0 0.00 0.02 0.02 85 1013.3
20260507013108 59 34 2.0 8.0 0.00 0.02 0.02 84 1013.1
20260507011548 59 5 2.0 7.0 0.00 0.02 0.02 82 1012.8
20260507010053 59 360 3.0 6.0 0.00 0.02 0.02 82 1012.5
20260507004551 59 23 3.0 8.0 0.00 0.02 0.02 81 1012.3
20260507003053 60 342 2.0 6.0 0.00 0.02 0.02 81 1012.5
20260507001607 59 336 1.0 8.0 0.00 0.02 0.02 82 1012.6
20260507000049 59 340 2.0 10.0 0.01 0.02 0.02 82 1012.5
20260506234557 59 11 4.0 10.0 0.01 0.02 0.02 82 1012.3
20260506233056 60 336 3.0 8.0 0.01 0.02 0.02 83 1012.1
20260506231554 59 355 2.0 13.0 0.01 0.02 0.02 83 1011.9
20260506230055 61 5 8.0 13.0 0.00 0.01 0.01 75 1011.8
20260506224607 62 355 4.0 9.0 0.00 0.01 0.01 73 1011.7
20260506223059 61 349 5.0 10.0 0.00 0.01 0.01 74 1011.9
20260506221556 62 317 3.0 10.0 0.00 0.01 0.01 73 1011.9
20260506214545 61 339 6.0 10.0 0.00 0.01 0.01 75 1011.6
20260506213053 61 27 2.0 10.0 0.00 0.01 0.01 74 1011.8
20260506211557 61 333 6.0 11.0 0.00 0.01 0.01 74 1011.8
20260506210056 62 337 8.0 12.0 0.00 0.01 0.01 74 1012.0
20260506204554 61 345 5.0 10.0 0.00 0.01 0.01 75 1011.7
20260506203100 60 344 4.0 10.0 0.00 0.01 0.01 76 1012.1
20260506201558 60 341 7.0 13.0 0.00 0.01 0.01 76 1012.3
20260506200054 58 329 7.0 10.0 0.00 0.01 0.01 80 1012.4
20260506194555 57 331 5.0 13.0 0.00 0.01 0.01 81 1012.7
20260506193053 56 340 8.0 13.0 0.00 0.01 0.01 82 1012.9
20260506191559 56 17 4.0 11.0 0.00 0.01 0.01 84 1012.9
20260506190055 55 340 7.0 11.0 0.00 0.01 0.01 85 1012.9
20260506184553 55 333 6.0 9.0 0.00 0.01 0.01 84 1013.3
20260506183059 55 347 6.0 9.0 0.00 0.01 0.01 85 1013.3
20260506181604 55 319 3.0 9.0 0.00 0.01 0.01 85 1013.5
20260506180055 55 304 4.0 11.0 0.00 0.01 0.01 84 1013.2
20260506174546 55 348 9.0 18.0 0.00 0.01 0.01 85 1011.7
20260506173121 55 355 10.0 17.0 0.00 0.01 0.01 85 1011.2
20260506171555 54 325 7.0 13.0 0.00 0.01 0.01 85 1011.7
20260506170104 55 37 3.0 12.0 0.00 0.01 0.01 85 1012.6
20260506164552 54 350 3.0 10.0 0.00 0.01 0.01 85 1012.7
20260506163057 54 360 4.0 13.0 0.00 0.01 0.01 85 1012.7
20260506161553 55 34 4.0 14.0 0.00 0.01 0.01 85 1012.3
20260506160059 55 350 5.0 12.0 0.00 0.01 0.01 87 1011.9
20260506154552 54 352 6.0 15.0 0.00 0.01 0.01 88 1011.8
20260506153053 52 350 4.0 10.0 0.01 0.01 0.01 89 1012.4
20260506151555 52 0 3.0 9.0 0.01 0.01 0.01 89 1012.9
20260506150053 52 314 6.0 14.0 0.01 0.01 0.01 87 1013.0
20260506144553 52 24 4.0 14.0 0.01 0.01 0.01 85 1013.2
20260506143053 52 311 7.0 15.0 0.00 0.00 0.00 83 1014.6
20260506141551 53 346 6.0 12.0 0.00 0.00 0.00 82 1013.3
20260506140053 53 338 9.0 16.0 0.00 0.00 0.00 81 1012.1
20260506134551 54 24 8.0 17.0 0.00 0.00 0.00 79 1012.3
20260506133101 54 355 6.0 15.0 0.00 0.00 0.00 78 1011.8
20260506131602 54 332 9.0 17.0 0.00 0.00 0.00 78 1011.5
20260506130056 55 325 7.0 15.0 0.00 0.00 0.00 78 1011.1
20260506124549 55 17 4.0 10.0 0.00 0.00 0.00 78 1010.8
20260506123052 55 337 6.0 15.0 0.00 0.00 0.00 79 1010.9
20260506121550 55 343 7.0 14.0 0.00 0.00 0.00 78 1010.4
20260506120056 56 344 6.0 12.0 0.00 0.00 0.00 79 1010.3
20260506114556 56 342 7.0 16.0 0.00 0.00 0.00 79 1010.3
20260506113053 56 349 9.0 15.0 0.00 0.00 0.00 79 1010.0
20260506111547 56 341 7.0 15.0 0.00 0.00 0.00 79 1009.9
20260506104555 57 5 6.0 13.0 0.00 0.00 0.00 79 1009.3
20260506103049 58 342 6.0 12.0 0.00 0.00 0.00 79 1009.1
20260506101552 58 335 6.0 11.0 0.00 0.00 0.00 78 1008.9
20260506100049 58 333 5.0 13.0 0.00 0.00 0.00 78 1008.7
20260506094619 59 336 8.0 12.0 0.00 0.00 0.00 78 1008.6
20260506093053 59 350 5.0 12.0 0.00 0.00 0.00 78 1008.4
20260506091552 60 344 6.0 11.0 0.00 0.00 0.00 78 1008.3
20260506090052 60 360 4.0 11.0 0.00 0.00 0.00 79 1008.2
20260506084551 60 327 4.0 8.0 0.00 0.00 0.00 78 1008.2
20260506083055 61 319 6.0 11.0 0.00 0.00 0.00 78 1008.1
20260506081555 61 327 5.0 9.0 0.00 0.00 0.00 78 1008.1
20260506073050 62 336 4.0 8.0 0.00 0.00 0.00 77 1007.7
20260506071555 62 341 4.0 9.0 0.00 0.00 0.00 77 1007.7
20260506061550 63 347 8.0 13.0 0.00 0.00 0.00 77 1007.5
20260506060112 64 346 6.0 12.0 0.00 0.00 0.00 76 1007.5
20260506044610 67 339 4.0 12.0 0.00 0.00 0.00 74 1007.3
20260506043054 67 355 7.0 13.0 0.00 0.00 0.00 73 1007.4
20260506041556 68 355 7.0 13.0 0.00 0.00 0.00 72 1007.3
20260506040055 69 340 6.0 13.0 0.00 0.00 0.00 72 1007.2
20260506034553 69 341 5.0 12.0 0.00 0.00 0.00 71 1007.0
20260506033052 70 355 5.0 12.0 0.00 0.00 0.00 70 1006.7
20260506031558 71 24 4.0 9.0 0.00 0.00 0.00 69 1006.3
20260506030052 72 9 3.0 10.0 0.00 0.00 0.00 69 1006.0
20260506024558 72 24 7.0 14.0 0.00 0.00 0.00 69 1006.4
20260506023100 73 352 5.0 11.0 0.00 0.00 0.00 67 1005.6
20260506021553 74 317 8.0 11.0 0.00 0.00 0.00 67 1005.5
20260506020049 75 30 5.0 10.0 0.00 0.00 0.00 66 1004.8